Probability
0 0 0 0 0 0 0 0 0 0 0 0 0 0 0 0 0 0 0 0 0 0 0 0 0 0 0 0 0 0 0 0 0 0 0 0 0 0 0 0 0 0 0
0 0 0 0 0 0 0 0 0 0 0 0 0 0 0 0 0 0 0 0 0 0 0 0 0 0 0 0 0 0 0 0 0 0 0 0 0 0 0 0 0 0 0
0 0 0 0 0 0 0 0 0 0 0 0 0 0 0 0 0 0 0 0 0 0 0 0 0 0 0 0 0 0 0 0 0 0 0 0 0 0 0 0 0 0 0
0 0 0 0 0 0 0 0 0 0 0 0 0 0 0 0 0 0 0 0 0 0 0 0 0 0 0 0 0 0 0 0 0 0 0 0 0 0 0 0 0 0 0
0 0 0 0 0 0 0 0 0 0 0 0 0 0 0 0 0 0 0 0 0 0 0 0 0 0 0 0 0 0 0 0 0 0 0 0 0 0 0 0 0 0 0
0 0 0 0 0 0 0 0 0 0 0 0 0 0 0 0 0 0 0 0 0 0 0 0 0 0 0 0 0 0 0 0 0 0 0 0 0 0 0 0 0 0 0
0 0 0 0 0 0 0 0 0 0 0 0 0 0 0 0 0 0 0 0 0 0 0 0 0 0 0 0 0 0 0 0 0 0 0 0 0 0 0 0 0 0 0
0 0 0 0 0 0 0 0 0 0 0 0 0 0 0 0 0 0 0 0 0 0 0 0 0 0 0 0 0 0 0 0 0 0 0 0 0 0 0 0 0 0 0
0 0 0 0 0 0 0 0 0 0 0 0 0 0 0 0 0 0 0 0 0 0 0 0 0 0 0 0 0 0 0 0 0 0 0 0 0 0 0 0 0 0 0
0 0 0 0 0 0 0 0 0 0 0 0 0 0 0 0 0 0 0 0 0 0 0 0 0 0 0 0 0 0 0 0 0 0 0 0 0 0 0 0 0 0 0
0 0 0 0 0 0 0 0 0 0 0 0 0 0 0 0 0 0 0 0 0 0 0 0 0 0 0 0 0 0 0 0 0 0 0 0 0 0 0 0 0 0 0
0 0 0 0 0 0 0 0 0 0 0 0 0 0 0 0 0 0 0 0 0 0 0 0 0 0 0 0 0 0 0 0 0 0 0 0 0 0 0 0 0 0 0
0 0 0 0 0 0 0 0 0 0 0 0 0 0 0 0 0 0 0 0 0 0 0 0 0 0 0 0 0 0 0 0 0 0 0 0 0 0 0 0 0 0 0
0 0 0 0 0 0 0 0 0 0 0 0 0 0 0 0 0 0 0 0 0 0 0 0 0 0 0 0 0 0 0 0 0 0 0 0 0 0 0 0 0 0 0
0 0 0 0 0 0 0 0 0 0 0 0 0 0 0 0 0 0 0 0 0 0 0 0 0 0 0 0 0 0 0 0 0 0 0 0 0 0 0 0 0 0 0
0 0 0 0 0 0 0 0 0 0 0 0 0 0 0 0 0 0 0 0 0 0 0 0 0 0 0 0 0 0 0 0 0 0 0 0 0 0 0 0 0 0 0
0 0 0 0 0 0 0 0 0 0 0 0 0 0 0 0 0 0 0 0 0 0 0 0 0 0 0 0 0 0 0 0 0 0 0 0 0 0 0 0 0 0 0
0 0 0 0 0 0 0 0 0 0 0 0 0 0 0 0 0 0 0 0 0 0 0 0 0 0 0 0 0 0 0 0 0 0 0 0 0 0 0 0 0 0 0
0 0 0 0 0 0 0 0 0 0 0 0 0 0 0 0 0 0 0 0 0 0 0 0 0 0 0 0 0 0 0 0 0 0 0 0 0 0 0 0 0 0 0
0 0 0 0 0 0 0 0 0 0 0 0 0 0 0 0 0 0 0 0 0 0 0 0 0 0 0 0 0 0 0 0 0 0 0 0 0 0 0 0 0 0 0
0 0 0 0 0 0 0 0 0 0 0 0 0 0 0 0 0 0 0 0 0 0 0 0 0 0 0 0 0 0 0 0 0 0 0 0 0 0 0 0 0 0 0
0 0 0 0 0 0 0 0 0 0 0 0 0 0 0 0 0 0 0 0 0 0 0 0 0 0 0 0 0 0 0 0 0 0 0 0 0 0 0 0 0 0 0
0 0 0 0 0 0 0 0 0 0 0 0 0 0 0 0 0 0 0 0 0 0 0 0 0 0 0 0 0 0 0 0 0 0 0 0 0 0 0 0 0 0 0
0 0 0 0 0 0 0 0 0 0 0 0 0 0 0 0 0 0 0 0 0 0 0 0 0 0 0 0 0 0 0 0 0 0 0 0 0 0 0 0 0 0 0
0 0 0 0 0 0 0 0 0 0 0 0 0 0 0 0 0 0 0 0 0 0 0 0 0 0 0 0 0 0 0 0 0 0 0 0 0 0 0 0 0 0 0
0 0 0 0 0 0 0 0 0 0 0 0 0 0 0 0 0 0 0 0 0 0 0 0 0 0 0 0 0 0 0 0 0 0 0 0 0 0 0 0 0 0 0
Height
5561 5562 5564 5566 5568 5571 5575 5578 5582 5586 5590 5594 5598 5603 5608 5613 5617 5622 5626 5630 5635 5639 5643 5647 5651 5654 5657 5660 5663 5666 5668 5671 5674 5676 5677 5678 5680 5681 5683 5684 5686 5687 5688
5552 5554 5555 5557 5559 5562 5565 5568 5571 5575 5579 5583 5587 5592 5596 5601 5605 5610 5614 5618 5622 5627 5631 5635 5638 5642 5645 5648 5650 5653 5656 5659 5661 5664 5665 5666 5667 5669 5670 5672 5673 5675 5676
5544 5545 5546 5548 5550 5552 5555 5558 5561 5565 5569 5572 5576 5580 5584 5588 5593 5597 5601 5605 5609 5614 5618 5622 5626 5629 5632 5635 5638 5641 5643 5646 5648 5650 5652 5653 5655 5656 5658 5660 5661 5662 5663
5535 5536 5537 5539 5541 5543 5545 5548 5551 5555 5558 5561 5565 5568 5572 5575 5579 5583 5588 5592 5596 5600 5604 5608 5612 5616 5619 5622 5624 5627 5630 5632 5635 5637 5639 5640 5642 5643 5645 5647 5648 5649 5650
5527 5528 5529 5530 5532 5534 5536 5539 5541 5544 5547 5550 5553 5556 5559 5563 5567 5570 5574 5578 5582 5586 5590 5594 5598 5602 5605 5608 5611 5614 5617 5619 5621 5623 5626 5627 5629 5630 5632 5634 5635 5636 5636
5519 5519 5520 5521 5523 5524 5526 5529 5531 5533 5536 5539 5541 5544 5547 5550 5554 5558 5561 5565 5569 5573 5576 5580 5585 5588 5592 5595 5598 5601 5603 5606 5608 5610 5613 5615 5616 5617 5618 5619 5621 5622 5624
5510 5510 5511 5512 5513 5515 5516 5518 5520 5522 5524 5526 5529 5531 5534 5538 5541 5544 5548 5551 5555 5559 5563 5567 5571 5575 5578 5582 5584 5587 5590 5592 5594 5597 5599 5601 5603 5604 5605 5606 5607 5608 5610
5501 5502 5502 5503 5504 5505 5506 5508 5509 5511 5513 5515 5517 5519 5522 5525 5528 5531 5534 5537 5541 5545 5549 5553 5557 5561 5564 5568 5571 5574 5576 5579 5581 5583 5586 5588 5589 5590 5591 5592 5592 5594 5595
5492 5492 5493 5493 5494 5495 5496 5497 5499 5500 5501 5503 5505 5508 5510 5513 5515 5518 5520 5524 5528 5532 5535 5539 5543 5547 5551 5554 5557 5560 5563 5565 5566 5569 5571 5572 5574 5575 5576 5577 5579 5580 5581
5484 5483 5483 5484 5484 5485 5486 5487 5488 5489 5490 5492 5494 5496 5499 5501 5503 5505 5507 5511 5515 5519 5523 5526 5530 5533 5537 5539 5543 5546 5549 5551 5553 5555 5557 5558 5559 5560 5561 5563 5564 5565 5566
5476 5475 5474 5474 5474 5475 5475 5476 5477 5478 5479 5481 5483 5485 5487 5489 5491 5493 5495 5498 5501 5505 5509 5513 5516 5520 5523 5525 5528 5531 5535 5537 5539 5540 5542 5544 5545 5546 5547 5548 5549 5550 5551
5467 5466 5465 5465 5464 5464 5465 5465 5466 5467 5468 5470 5472 5474 5476 5478 5479 5481 5483 5485 5488 5492 5496 5499 5503 5505 5508 5511 5513 5516 5519 5521 5523 5525 5527 5529 5530 5532 5533 5534 5535 5535 5536
5458 5457 5456 5455 5455 5454 5454 5455 5455 5456 5457 5458 5460 5462 5464 5465 5467 5469 5471 5473 5475 5478 5482 5485 5488 5491 5493 5496 5499 5501 5503 5505 5507 5509 5512 5514 5515 5516 5518 5519 5520 5520 5521
5450 5449 5447 5446 5446 5445 5445 5445 5445 5445 5446 5447 5449 5450 5452 5454 5455 5457 5459 5461 5463 5465 5468 5471 5474 5476 5479 5482 5484 5486 5488 5490 5492 5494 5496 5498 5499 5500 5502 5503 5504 5505 5507
5442 5440 5439 5437 5436 5436 5435 5435 5435 5435 5435 5436 5438 5439 5440 5443 5444 5445 5447 5449 5451 5453 5455 5457 5460 5462 5465 5468 5470 5472 5473 5475 5477 5479 5481 5483 5484 5485 5487 5488 5489 5490 5491
5433 5431 5430 5429 5428 5427 5426 5426 5425 5425 5425 5426 5426 5427 5429 5430 5432 5433 5435 5436 5438 5440 5442 5444 5447 5449 5452 5454 5457 5458 5460 5461 5463 5464 5466 5467 5469 5470 5471 5473 5474 5475 5476
5424 5423 5421 5420 5419 5418 5417 5417 5416 5416 5415 5415 5415 5416 5417 5418 5419 5421 5422 5424 5426 5428 5430 5432 5434 5437 5439 5441 5442 5444 5446 5447 5448 5450 5451 5452 5454 5455 5456 5458 5459 5460 5461
5415 5414 5412 5411 5410 5409 5408 5407 5406 5406 5406 5405 5404 5404 5405 5406 5408 5409 5410 5412 5415 5416 5418 5420 5422 5424 5425 5427 5429 5430 5432 5433 5434 5435 5436 5438 5439 5440 5442 5443 5444 5446 5447
5406 5405 5403 5402 5400 5399 5398 5397 5396 5395 5395 5394 5394 5394 5394 5395 5396 5397 5399 5401 5403 5405 5406 5408 5409 5411 5412 5413 5415 5416 5417 5419 5420 5421 5422 5423 5425 5426 5427 5429 5430 5431 5433
5397 5396 5394 5392 5391 5389 5388 5387 5386 5385 5384 5384 5384 5384 5384 5384 5385 5386 5387 5389 5390 5392 5394 5395 5396 5397 5398 5399 5400 5402 5403 5405 5406 5408 5409 5410 5411 5413 5414 5415 5417 5418 5419
5388 5386 5385 5383 5381 5380 5379 5378 5376 5375 5375 5374 5374 5373 5373 5374 5374 5375 5376 5377 5378 5380 5381 5382 5383 5383 5384 5385 5386 5388 5389 5391 5393 5394 5396 5397 5398 5400 5401 5402 5404 5405 5406
5379 5378 5376 5374 5373 5371 5370 5368 5367 5366 5365 5364 5364 5363 5363 5363 5363 5364 5365 5366 5367 5367 5368 5369 5370 5370 5371 5372 5373 5374 5376 5378 5380 5381 5383 5384 5386 5387 5388 5389 5391 5392 5393
5370 5369 5367 5366 5364 5363 5361 5359 5358 5357 5356 5355 5354 5354 5353 5353 5353 5353 5354 5355 5355 5356 5356 5357 5357 5358 5358 5359 5360 5362 5363 5365 5367 5368 5370 5371 5373 5374 5375 5377 5378 5379 5380
5362 5360 5359 5357 5356 5354 5353 5351 5349 5348 5347 5346 5345 5344 5344 5343 5343 5343 5343 5344 5344 5345 5345 5345 5346 5346 5347 5347 5348 5349 5350 5352 5353 5355 5357 5358 5360 5361 5363 5364 5365 5366 5367
5353 5352 5350 5349 5347 5346 5344 5343 5341 5340 5338 5337 5336 5336 5335 5335 5334 5334 5334 5334 5334 5334 5334 5334 5335 5335 5335 5336 5336 5337 5338 5339 5340 5342 5344 5345 5347 5349 5350 5352 5353 5354 5355
5345 5343 5342 5340 5339 5337 5336 5334 5333 5331 5330 5329 5328 5327 5326 5326 5325 5324 5324 5324 5323 5323 5323 5323 5324 5324 5324 5324 5325 5326 5326 5327 5328 5329 5331 5333 5335 5336 5338 5339 5341 5342 5343
Wind_Speed
36 37 37 38 39 40 41 41 42 41 43 43 44 45 47 48 48 48 49 49 48 47 47 47 47 46 46 46 46 46 46 46 46 46 45 44 44 44 44 44 43 43 43
35 36 37 38 39 40 41 41 42 43 44 45 45 46 48 49 49 48 49 49 49 49 50 50 50 49 48 47 48 47 47 47 47 46 45 44 45 44 44 45 45 45 44
35 36 37 38 40 40 40 40 42 44 44 46 46 46 46 47 48 49 50 50 50 50 50 51 50 50 49 48 48 48 47 47 47 47 46 46 46 46 46 46 46 47 46
35 35 36 38 39 41 41 41 41 42 43 44 45 46 46 46 47 49 50 50 50 49 49 49 49 50 49 49 48 48 48 47 48 48 48 48 48 47 47 46 46 47 48
33 35 36 38 39 40 41 41 42 43 43 44 45 46 47 47 47 48 49 49 49 49 50 49 49 49 49 49 48 48 49 49 49 49 49 49 49 48 47 47 47 48 49
32 34 36 37 39 39 41 42 41 43 44 44 44 46 47 47 48 49 50 50 49 50 50 50 51 50 50 50 49 49 49 48 49 49 49 49 49 49 48 48 48 48 48
31 33 35 36 37 38 40 42 42 43 44 44 43 45 45 46 46 48 49 49 50 50 50 50 50 51 51 50 50 51 50 49 49 49 49 49 50 50 49 49 49 49 49
31 33 34 34 36 37 39 41 41 42 42 43 43 44 44 44 45 46 48 49 49 49 49 49 50 50 50 50 50 50 50 50 50 51 51 50 50 51 51 50 50 50 49
30 31 33 34 35 37 38 39 40 41 41 42 42 42 43 43 45 45 46 48 48 48 49 48 48 49 49 50 50 51 50 49 50 51 51 51 51 51 51 51 50 50 49
28 29 31 33 34 35 37 38 40 40 40 40 41 41 41 41 43 44 45 46 47 48 48 48 49 49 49 49 50 50 50 50 50 51 52 52 51 51 51 51 50 49 49
28 29 30 32 33 34 36 37 38 39 39 39 40 40 41 41 42 42 43 44 46 47 48 48 48 48 49 50 51 51 50 50 50 51 52 52 51 50 50 49 49 49 49
28 29 29 30 31 33 35 36 36 37 39 39 40 41 41 42 42 41 42 43 45 48 48 49 50 50 50 50 51 51 51 51 51 52 52 52 51 51 50 51 51 50 50
28 29 29 30 31 31 33 34 36 37 38 39 40 40 40 41 42 42 42 42 43 45 47 48 49 50 50 50 51 51 51 51 52 52 52 51 51 52 52 51 51 50 51
29 29 29 29 30 31 31 33 34 36 37 38 39 40 40 41 41 42 42 42 42 42 43 45 46 46 48 49 49 49 50 50 51 51 51 51 51 51 51 52 51 51 51
29 29 29 29 30 30 31 31 32 34 35 35 36 38 39 40 40 41 42 42 42 42 42 43 44 44 45 46 47 47 48 49 50 50 51 51 51 51 51 51 50 49 50
28 28 28 28 28 28 29 30 31 32 33 34 35 37 38 39 39 40 41 41 41 41 42 42 43 43 44 45 46 47 47 48 49 49 50 50 50 50 50 50 49 49 49
28 28 28 28 28 29 29 31 31 32 32 34 35 36 37 38 39 39 40 40 41 40 40 40 41 42 43 44 45 45 46 47 47 48 48 48 49 49 48 48 48 48 47
29 28 28 28 28 29 30 30 31 32 33 34 34 35 36 37 37 38 38 39 39 39 39 39 40 41 42 43 44 45 45 46 46 46 46 46 46 46 46 46 46 46 46
28 28 28 28 29 29 29 29 30 31 32 32 33 33 34 35 36 37 37 38 38 39 40 40 41 41 41 42 42 43 44 44 44 45 45 45 44 44 44 44 44 44 45
28 28 28 28 28 28 29 29 29 29 29 30 31 32 33 34 35 35 36 37 37 38 40 41 41 41 42 42 42 42 42 42 42 43 43 42 42 42 42 42 43 43 43
27 27 27 27 26 27 27 28 28 28 28 29 29 30 31 33 34 35 36 36 37 38 39 40 40 40 41 42 41 42 42 42 42 41 41 41 41 41 41 42 42 42 42
25 26 26 26 26 26 26 27 27 28 28 28 28 29 30 31 32 34 35 36 37 37 37 38 38 38 39 40 40 40 41 41 41 41 41 40 40 41 41 41 41 41 41
25 25 26 26 26 26 26 26 26 27 27 28 28 29 30 30 31 32 33 34 35 36 37 36 37 37 37 38 38 39 39 40 40 40 40 40 40 40 40 40 40 40 40
25 25 25 25 26 26 26 26 27 27 27 27 28 28 29 29 30 31 32 33 33 34 34 34 35 35 36 37 37 37 38 39 39 39 39 40 40 39 39 39 39 38 38
25 25 25 26 26 26 26 26 27 27 27 27 27 27 27 28 29 29 30 31 31 32 32 33 33 33 34 35 35 36 36 36 37 38 38 37 37 38 38 38 38 37 38
25 25 25 25 26 26 26 26 26 26 26 27 27 27 28 28 29 29 30 30 31 32 32 32 32 33 33 33 34 34 34 35 35 35 35 35 35 36 36 36 36 36 36
Wind_Direction
261 257 253 249 248 249 247 246 245 245 245 244 243 241 242 242 243 244 244 244 244 245 246 247 248 249 249 251 252 253 255 256 257 258 259 259 259 260 261 262 262 264 264
261 257 254 251 249 249 248 247 245 246 245 244 244 243 243 243 244 244 245 245 245 246 248 248 249 250 252 253 254 254 256 258 258 259 259 259 260 261 262 263 264 265 265
262 258 255 253 250 249 249 249 248 247 246 246 246 246 246 245 245 245 246 247 247 248 249 249 250 252 253 254 255 255 256 257 257 258 259 260 261 262 263 264 265 265 265
263 259 255 252 251 251 250 249 248 249 249 248 247 247 247 247 246 246 247 247 247 248 249 249 250 252 253 254 255 255 255 256 257 259 260 261 263 263 264 265 265 265 265
264 260 256 254 254 253 252 251 251 251 250 249 249 248 247 247 247 247 247 247 248 248 248 248 249 251 252 253 254 254 255 257 258 259 260 261 263 264 265 266 266 266 265
267 264 260 257 255 255 254 254 255 254 252 251 251 250 248 248 248 247 247 248 248 248 248 250 249 250 252 253 253 254 255 258 259 259 260 262 263 264 265 266 267 267 266
267 265 263 260 257 256 255 255 257 256 254 254 252 251 250 249 248 248 248 248 248 249 249 250 250 250 251 252 254 255 256 257 259 260 261 261 263 264 264 265 266 267 267
268 266 264 262 259 258 256 256 256 256 255 253 252 251 251 250 249 249 249 248 249 248 248 248 249 250 251 252 254 255 256 258 259 260 260 262 263 264 265 267 267 268 267
271 268 265 263 260 258 257 256 255 255 255 253 252 252 251 251 250 250 250 250 249 249 249 249 250 251 252 254 255 255 256 258 260 261 262 264 264 264 265 266 267 268 268
272 270 266 264 262 260 258 256 255 254 254 253 252 252 252 251 251 252 251 251 250 250 250 250 251 252 253 255 256 256 258 260 261 261 262 264 264 264 264 265 266 267 267
276 274 271 268 264 262 260 258 256 255 254 254 253 253 252 253 253 254 253 252 252 251 251 252 253 254 254 256 257 258 259 260 261 262 262 264 264 263 264 264 265 267 267
277 276 274 272 268 265 263 261 259 257 256 255 255 254 254 254 255 256 256 255 255 254 253 253 254 256 257 258 258 259 260 260 261 261 262 263 263 263 263 263 265 266 267
278 278 277 274 272 269 266 264 263 261 261 259 258 257 257 256 258 259 258 259 258 257 256 256 256 257 258 259 259 260 261 261 262 262 263 263 263 263 262 263 264 265 266
281 280 279 276 273 272 271 269 266 264 263 261 260 260 260 260 260 260 260 260 261 260 258 257 257 258 258 258 259 260 261 262 262 262 262 263 263 263 263 263 264 265 265
283 282 281 279 275 273 271 269 267 264 264 263 262 261 260 260 260 260 261 261 262 262 260 259 258 258 258 258 258 259 260 261 261 262 262 262 263 263 263 263 264 264 265
284 282 282 280 277 274 271 269 267 265 265 264 263 262 261 260 260 260 261 261 261 261 261 260 258 258 257 258 259 261 261 261 262 262 263 262 262 263 262 263 263 263 264
284 283 282 281 278 276 274 271 267 266 266 266 264 263 262 260 259 260 260 260 260 260 260 260 259 258 257 258 260 261 262 262 262 262 262 262 262 262 261 262 262 263 264
284 283 282 280 278 277 276 274 272 269 267 266 265 263 261 259 258 259 259 259 259 260 261 261 260 258 258 260 262 262 262 262 261 261 262 262 262 261 261 261 262 263 263
284 283 283 281 280 278 278 277 276 274 270 267 265 263 261 259 259 259 260 260 261 261 262 261 261 260 260 260 261 262 262 261 260 261 262 262 262 262 262 262 262 263 264
284 284 284 283 281 279 278 278 277 276 273 270 267 265 263 261 260 261 261 261 262 262 263 263 263 263 262 261 262 262 261 261 261 261 262 262 262 262 263 263 264 264 264
284 283 283 284 283 281 279 278 279 278 276 274 272 269 267 265 263 263 263 263 263 263 264 264 265 265 264 263 262 262 260 260 260 260 260 260 261 262 263 263 264 264 265
284 283 282 282 283 283 282 281 281 281 280 277 275 273 271 268 266 265 264 264 264 264 265 266 266 265 264 263 262 261 260 260 260 260 260 260 261 262 262 262 263 264 265
284 283 282 282 283 284 283 282 281 280 280 279 278 275 273 270 268 266 265 265 266 266 267 267 266 265 265 263 262 261 261 260 260 260 261 261 262 263 262 262 263 265 266
284 283 283 283 283 284 283 283 282 281 280 279 279 277 275 273 271 269 267 266 267 267 267 267 267 267 267 265 263 262 261 260 260 260 261 261 262 263 263 263 264 265 266
284 283 283 283 284 284 283 283 283 282 281 280 279 277 276 275 275 273 271 269 268 268 268 268 267 267 267 266 264 263 262 261 260 260 261 261 261 262 262 263 263 264 264
285 284 285 285 285 284 284 284 284 283 282 280 279 278 277 277 276 276 275 273 271 269 269 268 267 267 267 266 265 264 263 262 262 261 261 261 261 262 262 262 262 262 263